Overview Statistics Trail Chart Weather Telemetry Raw packets
 

This is the latest recevied weather packets stored in our database for station/object KB4JAC-13. If no packets are shown the sender has not sent any weather packets the latest 10 day(s).

<< 16 17 18 19 20 21 22 >>
Time Temp. Humidity Pressure Rain* Wind** Luminosity Snow
1788316128 25.56° C 92% 993.2 hPa 0 mm - - -
1788315527 25.56° C 91% 993.2 hPa 0 mm - - -
1788314926 25.56° C 90% 993 hPa 0 mm - - -
1788314325 26.11° C 88% 993 hPa 0 mm - - -
1788313724 26.67° C 87% 992.8 hPa 0 mm - - -
1788313123 26.67° C 85% 992.7 hPa 0 mm - - -
1788312522 27.22° C 85% 992.6 hPa 0 mm - - -
1788311921 27.22° C 85% 992.6 hPa 0 mm - - -
1788311320 27.22° C 84% 992.5 hPa 0 mm - - -
1788310720 27.78° C 83% 992.4 hPa 0 mm - - -
1788310119 27.78° C 81% 992.5 hPa 0 mm - - -
1788309518 28.33° C 79% 992.5 hPa 0 mm - - -
1788308917 28.33° C 77% 992.4 hPa 0 mm - - -
1788308316 28.89° C 76% 992.3 hPa 0 mm - - -
1788307715 29.44° C 74% 992.2 hPa 0 mm - - -
1788307114 30° C 72% 992.3 hPa 0 mm - - -
1788306513 30° C 70% 992.4 hPa 0 mm - - -
1788305912 30.56° C 67% 992.5 hPa 0 mm - - -
1788305311 31.11° C 65% 992.6 hPa 0 mm - - -
1788304710 32.22° C 62% 992.6 hPa 0 mm - - -
1788304110 33.33° C 60% 992.2 hPa 0 mm - - -
1788303509 33.89° C 57% 992.3 hPa 0 mm - - -
1788302908 32.78° C 59% 992.5 hPa 0 mm - - -
1788302307 33.89° C 59% 992.3 hPa 0 mm - - -
1788301706 34.44° C 54% 992.3 hPa 0 mm - - -

* Rain since midnight (hover to see other rain measurements)
** Current wind speed in m/s (hover to see current wind gust speed)